Find OneWeb SL0573

NORAD ID: 55152 Int'l Des: 2023-004 Owner: ONEWEBN Country: UK Constellation: oneweb operational
LEOCIRCULARPOLARONEWEB_TYPE

現在のビュー

3D地球を読み込み中...

About OneWeb SL0573

OneWeb SL0573 (NORAD 55152) is a oneweb constellation satellite launched Jan 10, 2023 by ONEWEBN of UK. It operates in LEO, CIRCULAR, POLAR, ONEWEB_TYPE orbit with a mass of 148.00 kg.

OneWeb SL0573について

説明を読み込み中...

次回通過

Passes for default location (London). Set your location on the main map for personalized predictions.

高度履歴

Loading altitude history...

軌道要素

1 55152U 23004N 26171.45353797 .00000007 00000-0 -14249-4 0 9999
2 55152 87.9165 334.8189 0002334 113.7828 246.3549 13.18686575170128
Epoch: Jun 20, 2026 • Age: 30 hours

現在のステータス

高度 1199.2 km
速度 7.26 km/s
衛星直下点 64.60°N, 8.76°W
打ち上げ日 Jan 10, 2023
運用期間 3.4 years
タイプ internet

技術仕様

分類 Payload
質量 148.00 kg
乾燥質量 140.00 kg
総質量 148.00 kg
長さ 1.30 m
直径 1.00 m
スパン 5.00 m
形状 Trapezoid+2 pan
製造者 ONEWUS
バスタイプ ARROW
フェーズステータス In Orbit
所有者/国 ONEWEBN/UK

Most Searched